TimeCST,TemperatureF,Dew PointF,Humidity,Sea Level PressureIn,VisibilityMPH,Wind Direction,Wind SpeedMPH,Gust SpeedMPH,PrecipitationIn,Events,Conditions,WindDirDegrees,DateUTC
12:52 AM,32.0,28.9,88,30.13,4.0,SE,3.5,-,N/A,,Overcast,130,2013-02-07 06:52:00
1:52 AM,33.1,28.0,82,30.13,4.0,SSE,9.2,-,N/A,,Haze,150,2013-02-07 07:52:00
2:52 AM,32.0,28.0,85,30.11,4.0,SE,9.2,-,N/A,,Mostly Cloudy,140,2013-02-07 08:52:00
3:52 AM,32.0,28.0,85,30.10,4.0,SE,8.1,-,N/A,,Overcast,140,2013-02-07 09:52:00
4:30 AM,32.0,28.4,87,30.06,4.0,SE,11.5,-,0.00,,Overcast,130,2013-02-07 10:30:00
4:52 AM,32.0,28.9,88,30.09,4.0,SE,9.2,-,0.00,,Overcast,140,2013-02-07 10:52:00
5:28 AM,32.0,28.4,87,30.05,3.0,SE,9.2,-,0.00,,Overcast,140,2013-02-07 11:28:00
5:43 AM,30.2,30.2,100,30.05,3.0,SE,11.5,-,0.00,Rain,Light Freezing Rain,140,2013-02-07 11:43:00
5:52 AM,30.9,28.9,92,30.09,2.5,SE,11.5,-,0.00,Rain,Light Freezing Rain,140,2013-02-07 11:52:00
6:52 AM,32.0,30.0,92,30.08,2.0,SSE,8.1,-,0.03,Rain,Light Freezing Rain,150,2013-02-07 12:52:00
7:26 AM,32.0,30.2,93,30.03,1.2,SE,8.1,-,0.01,Rain,Light Freezing Rain,140,2013-02-07 13:26:00
7:35 AM,32.0,30.2,93,30.04,1.2,SE,6.9,-,0.01,Rain,Light Freezing Rain,140,2013-02-07 13:35:00
7:52 AM,32.0,30.9,96,30.07,1.2,SE,10.4,-,0.02,Rain,Light Freezing Rain,130,2013-02-07 13:52:00
8:35 AM,32.0,30.2,93,30.02,1.2,SE,8.1,-,0.00,,Overcast,130,2013-02-07 14:35:00
9:52 AM,32.0,30.9,96,30.04,1.8,SE,5.8,-,0.01,,Overcast,140,2013-02-07 15:52:00
10:10 AM,32.0,30.2,93,30.00,2.0,SSE,5.8,-,0.01,Snow,Light Snow,150,2013-02-07 16:10:00
10:22 AM,32.0,30.2,93,30.01,1.2,SSE,9.2,-,0.01,Snow,Light Snow,150,2013-02-07 16:22:00
10:29 AM,32.0,30.2,93,30.01,0.8,SSE,8.1,-,0.01,Snow,Light Snow,150,2013-02-07 16:29:00
10:42 AM,32.0,30.2,93,30.00,0.5,SE,5.8,-,0.01,Fog-Snow,Light Snow,130,2013-02-07 16:42:00
10:52 AM,32.0,30.9,96,30.04,0.8,SE,5.8,-,0.01,Snow,Light Snow,130,2013-02-07 16:52:00
11:10 AM,32.0,30.2,93,30.00,0.5,SE,8.1,-,0.01,Fog-Snow,Light Snow,140,2013-02-07 17:10:00
11:34 AM,32.0,30.2,93,29.99,0.2,SE,9.2,-,0.01,Fog-Snow,Light Snow,140,2013-02-07 17:34:00
11:52 AM,32.0,30.9,96,30.01,0.5,SE,8.1,-,0.01,Fog-Snow,Light Snow,140,2013-02-07 17:52:00
12:04 PM,32.0,32.0,100,29.97,0.2,SE,10.4,-,0.00,Fog-Snow,Snow,140,2013-02-07 18:04:00
12:52 PM,32.0,32.0,100,29.98,0.2,ESE,8.1,-,0.00,Fog-Snow,Heavy Snow,120,2013-02-07 18:52:00
1:18 PM,32.0,32.0,100,29.93,0.5,SE,8.1,-,0.00,Fog-Snow,Snow,140,2013-02-07 19:18:00
1:52 PM,32.0,32.0,100,29.95,0.2,SE,5.8,-,0.01,Fog-Snow,Snow,130,2013-02-07 19:52:00
2:52 PM,32.0,32.0,100,29.92,0.2,East,5.8,-,0.00,Fog-Snow,Heavy Snow,100,2013-02-07 20:52:00
3:52 PM,32.0,32.0,100,29.91,0.2,ESE,4.6,-,0.00,Fog-Snow,Snow,110,2013-02-07 21:52:00
3:59 PM,32.0,32.0,100,29.87,0.2,ESE,3.5,-,0.00,Fog-Snow,Snow,110,2013-02-07 21:59:00
4:52 PM,32.0,32.0,100,29.91,0.2,Calm,Calm,-,0.00,Fog-Snow,Snow,0,2013-02-07 22:52:00
5:25 PM,32.0,32.0,100,29.87,0.5,Calm,Calm,-,0.01,Fog-Snow,Snow,0,2013-02-07 23:25:00
5:52 PM,32.0,32.0,100,29.91,0.8,North,3.5,-,0.01,Snow,Light Snow,360,2013-02-07 23:52:00
6:39 PM,32.0,32.0,100,29.88,1.0,North,4.6,-,0.00,Snow,Light Snow,350,2013-02-08 00:39:00
6:52 PM,32.0,32.0,100,29.91,1.0,North,3.5,-,0.00,Snow,Light Snow,350,2013-02-08 00:52:00
7:17 PM,32.0,32.0,100,29.88,1.2,North,5.8,-,0.00,Snow,Light Snow,350,2013-02-08 01:17:00
7:44 PM,32.0,32.0,100,29.89,0.8,NNW,4.6,-,0.00,Snow,Light Snow,340,2013-02-08 01:44:00
7:52 PM,32.0,32.0,100,29.92,1.0,North,5.8,-,0.00,Snow,Light Snow,360,2013-02-08 01:52:00
8:36 PM,33.8,32.0,93,29.87,2.0,North,5.8,-,0.00,Snow,Light Snow,350,2013-02-08 02:36:00
8:52 PM,33.1,32.0,96,29.92,2.5,NNW,6.9,-,0.00,Snow,Light Snow,330,2013-02-08 02:52:00
9:11 PM,33.8,32.0,93,29.89,1.5,NNW,8.1,-,0.00,Snow,Light Snow,330,2013-02-08 03:11:00
9:35 PM,33.8,32.0,93,29.89,2.0,NNW,6.9,-,0.00,Snow,Light Snow,330,2013-02-08 03:35:00
9:44 PM,33.8,32.0,93,29.90,1.5,NNW,8.1,-,0.00,Snow,Light Snow,340,2013-02-08 03:44:00
9:52 PM,33.1,32.0,96,29.94,1.8,NNW,9.2,-,0.00,Snow,Light Snow,340,2013-02-08 03:52:00
10:01 PM,33.8,30.2,87,29.90,1.8,NNW,9.2,17.3,0.00,Snow,Light Snow,330,2013-02-08 04:01:00
10:08 PM,33.8,32.0,93,29.90,2.0,NNW,8.1,17.3,0.00,Snow,Light Snow,330,2013-02-08 04:08:00
10:18 PM,33.8,32.0,93,29.91,1.8,NNW,11.5,18.4,0.00,Snow,Light Snow,330,2013-02-08 04:18:00
10:52 PM,33.1,30.9,92,29.95,1.5,NNW,11.5,21.9,0.00,Snow,Light Snow,330,2013-02-08 04:52:00
11:52 PM,28.9,28.0,96,29.99,1.0,NNW,11.5,23.0,0.00,Snow,Light Snow,330,2013-02-08 05:52:00